Flag for Canada Weather past 2 weeks in Vancouver, British Columbia, Canada

Now
59 °F

Mostly cloudy.


Feels Like: 57 °F
Forecast: 55 / 64 °F
Wind: 9 mph from South

Location: Vancouver International Airport

Current Time: Aug 30, 2015 at 9:48:16 AM

Latest Report: Aug 30, 2015 at 9:00 AM


Visibility: 15 mi

Pressure: 29.82 "Hg

Humidity: 82%

Dew point: 54 °F

Location of VancouverLocation

Historic Weather in Vancouver — Graph

°F

Vancouver temperature yesterday

Maximum temperature yesterday: 70 °F (at 3:00 PM)
Minimum temperature yesterday: 61 °F (at 8:00 AM)
Average temperature yesterday: 64 °F

Past Weeks' High & Low Weather Summary

 TemperatureHumidityPressure
High75 °F (Aug 19, 5:00 PM)100% (Aug 28, 7:56 AM)30.27 "Hg (Aug 28, 7:56 AM)
Low54 °F (Aug 23, 4:00 AM)41% (Aug 24, 5:00 PM)29.40 "Hg (Aug 29, 12:00 PM)
Average65 °F73%29.97 "Hg
* Reported Aug 15 8:00 AM — Aug 30 8:00 AM, Vancouver, Weather by CustomWeather, © 2015

Note: Actual official high and low records may vary slightly from our data, if they occured in-between our weather recording intervals... More about our weather records

Advertising

Vancouver weather history for previous 24 hours

 ConditionsComfort  
Time TempWeatherWind HumidityBarometerVisibility
8:00 AM
Sun, Aug 30
57 °FBroken clouds.10 mph88%29.79 "Hg12 mi
7:00 AM57 °FLight rain. Mostly cloudy.9 mph94%29.77 "Hg10 mi
6:00 AM57 °FMostly cloudy.8 mph94%29.75 "Hg12 mi
5:00 AM57 °FOvercast.6 mph94%29.73 "Hg12 mi
4:00 AM57 °FOvercast.12 mph94%29.72 "Hg12 mi
3:00 AM57 °FOvercast.9 mph94%29.72 "Hg12 mi
2:00 AM59 °FMostly cloudy.8 mph88%29.70 "Hg12 mi
1:00 AM59 °FLight rain. Mostly cloudy.8 mph94%29.72 "Hg12 mi
12:00 AM59 °FMostly cloudy.8 mph88%29.70 "Hg12 mi
11:00 PM
Sat, Aug 29
61 °FMostly cloudy.10 mph83%29.70 "Hg12 mi
10:00 PM61 °FOvercast.10 mph88%29.69 "Hg12 mi
9:00 PM61 °FPartly sunny.10 mph83%29.69 "Hg12 mi
8:00 PM61 °FPartly sunny.13 mph88%29.68 "Hg15 mi
7:00 PM61 °FPartly sunny.10 mph88%29.67 "Hg12 mi
6:55 PM61 °FLight rain. Broken clouds.7 mph88%29.67 "Hg10 mi
6:00 PM63 °FCloudy.9 mph88%29.65 "Hg10 mi
5:00 PM64 °FLight rain. Fog.7 mph78%29.66 "Hg4 mi
4:00 PM68 °FMostly cloudy.10 mph56%29.64 "Hg20 mi
3:00 PM70 °FBroken clouds.22 mph64%29.59 "Hg20 mi
2:00 PM66 °FMostly cloudy.24 mph68%29.54 "Hg20 mi
1:00 PM68 °FPartly sunny.35 mph64%29.49 "Hg15 mi
12:00 PM68 °FMostly cloudy.33 mph64%29.40 "Hg20 mi
11:00 AM64 °FCloudy.21 mph83%29.46 "Hg20 mi
10:00 AM64 °FMostly cloudy.21 mph83%29.48 "Hg20 mi
9:00 AM63 °FCloudy.22 mph88%29.47 "Hg15 mi
Weather by CustomWeather, © 2015

See weather overviewHow to use our weather pages